User: anonymous   Login
Location: Unspecified
(0.0000°N, 0.0000°E)
Time: 16:26:25
(UTC+00:00)
Language:

OPTUS D1 - Orbit

View from above orbital plane
View from above orbital plane
View from above satellite
View from above satellite

Ground track
Ground track

The orbit data is extracted from the following two-line orbital elements,

1 29495U 06043B   15143.23608949 -.00000126  00000-0  10000-3 0  9991
2 29495 000.0746 061.5938 0003151 349.3524 074.5645 01.00271326 31603
Epoch (UTC): 23 May 2015 05:39:58
Eccentricity: 0.0003151
inclination: 0.0746°
perigee height: 35773 km
apogee height: 35799 km
right ascension of ascending node: 61.5938°
argument of perigee: 349.3524°
revolutions per day: 1.00271326
mean anomaly at epoch: 74.5645°
orbit number at epoch: 3160

The dashed part of the orbit path shows where the satellite is in the earth's shadow,  

DLR